User: anonymous   Login
Location: Brno
(49.2000°N, 16.6330°E)
Time: 14:14:28
(UTC+01:00)
Language:

Iridium 2 - Orbit

View from above orbital plane
View from above orbital plane
View from above satellite
View from above satellite

Ground track
Ground track

The orbit data is extracted from the following two-line orbital elements,

1 25527U 98066A   15031.52821353  .00007963  00000-0  47767-3 0  5343
2 25527 085.5333 182.6532 0011987 036.7593 009.8991 15.10735547886563
Epoch (UTC): 31 January 2015 12:40:37
Eccentricity: 0.0011987
inclination: 85.5333°
perigee height: 525 km
apogee height: 542 km
right ascension of ascending node: 182.6532°
argument of perigee: 36.7593°
revolutions per day: 15.10735547
mean anomaly at epoch: 9.8991°
orbit number at epoch: 88656

The dashed part of the orbit path shows where the satellite is in the earth's shadow,  

DLR